OPS 4682 DEB, 38387

Orbit data source: Space-Track

OPS 4682 DEB, 38387 is space debris in LEO originally from a launch on Sat, 03 Apr 1965 UTC launched from the Air Force Western Test Range (AFWTR). Debris objects in space refer to the collection of defunct objects orbiting the Earth. Examples of debris include non-operational satellites, rocket bodies, and fragments generated from explosions, collisions, or faulty payload assembly.

Loading next visibility...
Identifier
38387, 1965-027CQ
Orbit
LEO
Country
Flag of USUS
Related business
Manufacturer
Unknown
Mission
Spacecraft
Bus & Motor
Unknown
Mass
Unknown
Launch date (UTC)
1965-04-03 (61 years ago)
Launch vehicle
Unknown
Launch site
Air Force Western Test Range (AFWTR)
Object type
Payload
Rocket body
Debris
Shape & HBR
Unknown shape, 0.1 m
Radar Cross Section
Small (<0.1 m²)

Expand to show TLE details & history
Last TLE update: 1 day ago

TLE from 1 day ago
0 OPS 4682 DEB
1 38387U 65027CQ  26149.34229022  .00000359  00000-0  12283-2 0  9990
2 38387  90.2447   4.9505 0024660 149.5274 210.7285 12.96439039601402
Epoch: 2026-05-29T08:12Z
TLE epoch observation values (Epoch: 2026-05-29T08:12:53.875Z)
Latitude
-0.00005°
Longitude
-5.14802°
Altitude
1,295.189 km
Speed
7.201 km/s
True Right ascension
00h 19m 48s
True Declination
0° 00' 00"
Sunlit
Object was in daylight at epoch
Visualization orbit readout
Latitude
Unknown
Longitude
Unknown
Altitude
Unknown
Speed
Unknown
Apparent Right ascension
Unknown
Apparent Declination
Unknown
Sunlit
N/A
Visualization observer readout
Local Sidereal Time
02:48:20
Azimuth
Unknown
Elevation
Unknown
Doppler factor
Unknown
Orbital elements
Apogee altitude
1,292.071 km
Perigee altitude
1,254.335 km
Semi-major axis
7,651.34 km
Eccentricity
0.00247
Inclination
90.2447°
RAAN
4.9505°
Arg. of periapsis
149.5274°
True anomaly
210.58449°
Mean anomaly
210.7285°
Eccentric anomaly
210.65646°
Mean motion
3.24293 °/min
Orbital period
111.01 mins
BSTAR
0.0012283
Loading maneuver chart data...
Computing Atmospheric mass density...
Loading historical data...
Loading historical data...
Loading historical data...
Loading historical data...
Loading historical data...
Loading historical data...
Loading historical data...

Documentation

Showing up to 5 results
|